Weather in Tartar

Azerbaijan     40°20′44″N   46°55′56″E
temp.,
°C
wind,
m/s
gust,
m/s
humid.,
%
clouds,
%
prec.,
mm/h
press.,
hPa
HPBL,
m
31 july, sat
sat3101:00+25s233988 0.0 101161
04:00+24e125023 0.0 101028
07:00+24ssw11571 0.0 101178
10:00+29ese324065 0.0 10101028
13:00+32ese43300 0.0 10091854
16:00+34ese33294 0.0 10062277
19:00+34ese543192 0.0 10062112
22:00+27sse59546 0.0 1009348
1 august, sun
sun101:00+24ese24707 0.0 101097
04:00+23s22785 0.0 101041
07:00+24sse23735 0.0 1011182
10:00+30ese334284 0.0 10111185
13:00+34ese54287 0.0 10092107
16:00+34e3330100 0.0 10082127
19:00+33se553191 0.0 10081736
22:00+29sse4841100 0.0 1010293
2 august, mon
mon201:00+27s224996 0.0 101024
04:00+25s2257100 0.0 101013
07:00+26ssw115199 0.0 101144
10:00+31ene212899 0.0 1011686
13:00+34se331799 0.0 10101109
16:00+36sse6617100 0.0 10082363
19:00+33s332145 0.0 1009436
22:00+28sw332736 0.0 101015
3 august, tue
tue301:00+26sw22345 0.0 101011
04:00+24ssw22398 0.0 101013
07:00+26w1135100 0.0 101116
10:00+32ene222185 0.0 1011885
13:00+34sse551693 0.0 10101098
16:00+35wsw431597 0.0 1009533
19:00+36se46175 0.0 1008516
22:00+29sw33250 0.0 101125
4 august, wed
wed401:00+27sw22280 0.0 101112
04:00+25wsw11325 0.0 101111
07:00+27w11305 0.0 101314
10:00+34ne32190 0.0 1013925
13:00+38ese33120 0.0 10102316
16:00+40se43110 0.0 10092595
19:00+38se23130 0.0 100864
22:00+30ssw46220 0.0 101192